User: anonymous   Login
Location: Conflandey
(47.7287°N, 6.0456°E)
Time: 23:57:05
(UTC+00:00)
Language:

IRAS Rocket - Orbit

View from above orbital plane
View from above orbital plane
View from above satellite
View from above satellite

Ground track
Ground track

The orbit data is extracted from the following two-line orbital elements,

1 13778U 83004B   22020.56656258  .00000075  00000-0  74545-4 0  9991
2 13778 100.0907 224.7866 0020626 320.8364  39.1308 14.09070432  3133
Epoch (UTC): 20 January 2022 13:35:51
Eccentricity: 0.0020626
inclination: 100.0907°
perigee height: 847 km
apogee height: 877 km
right ascension of ascending node: 224.7866°
argument of perigee: 320.8364°
revolutions per day: 14.09070432
mean anomaly at epoch: 39.1308°
orbit number at epoch: 313

The dashed part of the orbit path shows where the satellite is in the earth's shadow,  

DLR